Date String (YYYY-MM-DD hh:mm:ss) UTC,Instrument flags,Ambient pressure (hPa),Sample flow (lpm),Bypass flow (lpm),Sample temperature (°C),Ambient temperature (°C),ASC tube jacket temperature (°C),LED temperature (°C),Box temperature (°C),Sample RH (%),Span deviation,Mass concentration (μg/m³),Mass concentration (μg/m³),Mass concentration (μg/m³)
DateTimeUTC,F1_M11,P_M11,Q1_M11,Q2_M11,T1_M11,T2_M11,T3_M11,T4_M11,T5_M11,U1_M11,ZSPAN_M11,X0_M11,X2_M11,X1_M11
2021-11-21 21:00:00,,0832.9,4.99,0.00,26.5,25.8,00.0,35.3,28.3,09.0,0000.0,0005.83,0002.23,0001.87
2021-11-21 21:01:00,,0832.9,5.02,0.00,26.5,25.8,00.0,35.3,28.3,09.0,0000.0,0005.63,0002.20,0001.86
2021-11-21 21:02:00,,0832.8,4.98,0.00,26.5,25.8,00.0,35.3,28.4,09.0,0000.0,0005.38,0002.20,0001.84
2021-11-21 21:03:00,,0832.8,5.01,0.00,26.5,25.8,00.0,35.3,28.4,09.0,0000.0,0005.62,0002.20,0001.83
2021-11-21 21:04:00,,0832.8,5.00,0.00,26.5,25.9,00.0,35.4,28.4,08.8,0000.0,0005.80,0002.20,0001.82
2021-11-21 21:05:00,,0832.9,4.99,0.00,26.6,25.9,00.0,35.4,28.4,08.7,0000.0,0006.03,0002.22,0001.79
2021-11-21 21:06:00,,0832.8,5.01,0.00,26.6,25.9,00.0,35.4,28.4,08.7,0000.0,0005.96,0002.20,0001.76
2021-11-21 21:07:00,,0832.8,5.00,0.00,26.6,25.9,00.0,35.4,28.4,08.7,0000.0,0005.76,0002.21,0001.73
2021-11-21 21:08:00,,0832.8,5.01,0.00,26.6,25.8,00.0,35.4,28.4,08.7,0000.0,0005.55,0002.22,0001.71
2021-11-21 21:09:00,,0832.8,4.99,0.00,26.6,25.9,00.0,35.4,28.4,08.7,0000.0,0005.51,0002.18,0001.69
2021-11-21 21:10:00,,0832.8,5.00,0.00,26.6,25.9,00.0,35.4,28.4,08.7,0000.0,0004.81,0002.15,0001.67
2021-11-21 21:11:00,,0832.8,5.02,0.00,26.6,25.9,00.0,35.5,28.4,08.7,0000.0,0004.31,0002.17,0001.66
2021-11-21 21:12:00,,0832.8,4.99,0.00,26.6,25.9,00.0,35.5,28.5,08.7,0000.0,0004.29,0002.15,0001.63
2021-11-21 21:13:00,,0832.7,5.01,0.00,26.6,25.9,00.0,35.5,28.5,08.7,0000.0,0004.18,0002.11,0001.63
2021-11-21 21:14:00,,0832.8,5.01,0.00,26.6,25.9,00.0,35.5,28.5,08.7,0000.0,0003.99,0002.08,0001.61
2021-11-21 21:15:00,,0832.8,4.99,0.00,26.6,25.9,00.0,35.5,28.5,08.8,0000.0,0004.10,0002.06,0001.60
2021-11-21 21:16:00,,0832.7,5.02,0.00,26.6,25.9,00.0,35.5,28.5,08.8,0000.0,0004.37,0002.02,0001.60
2021-11-21 21:17:00,,0832.8,4.99,0.00,26.6,25.9,00.0,35.5,28.5,08.7,0000.0,0004.50,0002.00,0001.60
2021-11-21 21:18:00,,0832.7,5.00,0.00,26.6,26.0,00.0,35.5,28.5,08.7,0000.0,0004.26,0001.96,0001.61
2021-11-21 21:19:00,,0832.7,5.01,0.00,26.7,26.0,00.0,35.6,28.5,08.8,0000.0,0004.76,0001.93,0001.61
2021-11-21 21:20:00,,0832.7,4.98,0.00,26.7,26.0,00.0,35.6,28.5,08.8,0000.0,0005.15,0001.93,0001.61
2021-11-21 21:21:00,,0832.6,5.01,0.00,26.7,26.0,00.0,35.6,28.5,08.6,0000.0,0005.43,0001.92,0001.62
2021-11-21 21:22:00,,0832.6,5.01,0.00,26.7,26.0,00.0,35.6,28.5,08.6,0000.0,0005.42,0001.90,0001.61
2021-11-21 21:23:00,,0832.7,5.00,0.00,26.7,26.0,00.0,35.6,28.5,08.7,0000.0,0005.45,0001.91,0001.62
2021-11-21 21:24:00,,0832.7,4.99,0.00,26.7,26.0,00.0,35.6,28.6,08.6,0000.0,0006.15,0001.99,0001.62
2021-11-21 21:25:00,,0832.7,5.00,0.00,26.7,26.0,00.0,35.6,28.6,08.6,0000.0,0006.57,0002.04,0001.60
2021-11-21 21:26:00,,0832.6,4.99,0.00,26.7,26.1,00.0,35.6,28.6,08.6,0000.0,0006.57,0002.04,0001.60
2021-11-21 21:27:00,,0832.7,5.00,0.00,26.8,26.1,00.0,35.6,28.6,08.5,0000.0,0006.02,0002.05,0001.59
2021-11-21 21:28:00,,0832.6,5.01,0.00,26.7,26.1,00.0,35.6,28.6,08.5,0000.0,0006.26,0002.05,0001.57
2021-11-21 21:29:00,,0832.7,5.00,0.00,26.8,26.1,00.0,35.7,28.6,08.5,0000.0,0006.43,0002.08,0001.56
2021-11-21 21:30:00,,0832.6,5.00,0.00,26.8,26.1,00.0,35.7,28.6,08.5,0000.0,0005.76,0002.09,0001.55
2021-11-21 21:31:00,,0832.6,5.01,0.00,26.8,26.1,00.0,35.7,28.6,08.4,0000.0,0005.22,0002.08,0001.53
2021-11-21 21:32:00,,0832.6,4.99,0.00,26.8,26.1,00.0,35.7,28.6,08.3,0000.0,0005.02,0002.11,0001.52
2021-11-21 21:33:00,,0832.7,5.00,0.00,26.8,26.1,00.0,35.7,28.6,08.3,0000.0,0004.95,0002.09,0001.50
2021-11-21 21:34:00,,0832.6,5.01,0.00,26.8,26.1,00.0,35.7,28.6,08.3,0000.0,0004.94,0002.08,0001.48
2021-11-21 21:35:00,,0832.6,5.01,0.00,26.8,26.1,00.0,35.7,28.6,08.3,0000.0,0004.82,0002.04,0001.48
2021-11-21 21:36:00,,0832.6,4.99,0.00,26.8,26.1,00.0,35.7,28.6,08.3,0000.0,0004.97,0002.00,0001.48
2021-11-21 21:37:00,,0832.6,5.01,0.00,26.8,26.1,00.0,35.7,28.6,08.3,0000.0,0006.49,0001.94,0001.45
2021-11-21 21:38:00,,0832.6,4.99,0.00,26.8,26.1,00.0,35.7,28.6,08.3,0000.0,0006.40,0001.92,0001.44
2021-11-21 21:39:00,,0832.6,5.01,0.00,26.8,26.1,00.0,35.7,28.6,08.3,0000.0,0006.36,0001.87,0001.43
2021-11-21 21:40:00,,0832.6,5.00,0.00,26.8,26.1,00.0,35.7,28.6,08.3,0000.0,0007.00,0001.84,0001.41
2021-11-21 21:41:00,,0832.6,5.00,0.00,26.8,26.1,00.0,35.7,28.7,08.3,0000.0,0007.38,0001.84,0001.39
2021-11-21 21:42:00,,0832.5,5.00,0.00,26.8,26.1,00.0,35.7,28.7,08.3,0000.0,0007.78,0001.85,0001.39
2021-11-21 21:43:00,,0832.6,5.00,0.00,26.8,26.1,00.0,35.8,28.6,08.3,0000.0,0007.70,0001.80,0001.39
2021-11-21 21:44:00,,0832.6,5.00,0.00,26.8,26.1,00.0,35.8,28.6,08.2,0000.0,0007.80,0001.79,0001.39
2021-11-21 21:45:00,,0832.6,5.01,0.00,26.8,26.1,00.0,35.8,28.6,08.1,0000.0,0007.75,0001.75,0001.38
2021-11-21 21:46:00,,0832.6,4.99,0.00,26.8,26.1,00.0,35.8,28.6,08.0,0000.0,0007.61,0001.74,0001.37
2021-11-21 21:47:00,,0832.6,5.00,0.00,26.8,26.1,00.0,35.8,28.6,08.0,0000.0,0007.19,0001.70,0001.36
2021-11-21 21:48:00,,0832.6,5.00,0.00,26.8,26.2,00.0,35.8,28.7,08.0,0000.0,0006.66,0001.73,0001.36
2021-11-21 21:49:00,,0832.6,5.01,0.00,26.9,26.2,00.0,35.8,28.7,08.1,0000.0,0006.74,0001.73,0001.36
2021-11-21 21:50:00,,0832.6,5.01,0.00,26.9,26.2,00.0,35.8,28.7,08.0,0000.0,0006.29,0001.74,0001.37
2021-11-21 21:51:00,,0832.7,4.99,0.00,26.9,26.2,00.0,35.8,28.7,08.0,0000.0,0005.49,0001.80,0001.37
2021-11-21 21:52:00,,0832.6,5.02,0.00,26.9,26.2,00.0,35.8,28.7,08.2,0000.0,0005.62,0001.82,0001.38
2021-11-21 21:53:00,,0832.5,4.98,0.00,26.9,26.2,00.0,35.8,28.7,08.1,0000.0,0006.15,0001.81,0001.37
2021-11-21 21:54:00,,0832.5,5.01,0.00,26.9,26.2,00.0,35.8,28.7,08.0,0000.0,0006.64,0001.83,0001.36
2021-11-21 21:55:00,,0832.5,4.99,0.00,26.9,26.2,00.0,35.8,28.7,08.0,0000.0,0007.65,0001.85,0001.35
2021-11-21 21:56:00,,0832.5,5.00,0.00,26.9,26.2,00.0,35.8,28.7,08.1,0000.0,0007.67,0001.86,0001.35
2021-11-21 21:57:00,,0832.6,5.01,0.00,26.9,26.2,00.0,35.8,28.7,08.0,0000.0,0007.64,0001.86,0001.37
2021-11-21 21:58:00,,0832.5,4.99,0.00,26.9,26.2,00.0,35.8,28.7,07.9,0000.0,0007.69,0001.94,0001.40
2021-11-21 21:59:00,,0832.5,4.99,0.00,26.9,26.2,00.0,35.8,28.7,07.9,0000.0,0007.22,0001.93,0001.40
